Zurück zum Katalog

SL-8 R/B

AktivLEO
NORAD 13769·ROCKET BODY·🇷🇺 Russia

Gestartet Jan 19, 1983 von Plesetsk Cosmodrome

Loading…

Nächste Überflüge (nächste 24 Stunden)

TLE

AktuellSource: Space-Track

Epoche: Sep 14, 2026, 08:20 UTC

1 13769U 83002J   26257.34756803  .00000032  00000-0  43725-3 0  9996
2 13769  74.0056 215.0649 0136734 291.4342 224.2031 12.21374143946625

Verfolge SL-8 R/B in Echtzeit mit AllMySat

Download on the App Store